Time,TemperatureF,DewpointF,PressureIn,WindDirection,WindDirectionDegrees,WindSpeedMPH,WindSpeedGustMPH,Humidity,HourlyPrecipIn,Conditions,Clouds,dailyrainin,SoftwareType,DateUTC
2015-08-28 00:05:00,63.6,59.0,30.13,NNE,29,0.0,1.0,85,0.00,,,0.00,Wunderground v.1.15,2015-08-28 04:05:00,
2015-08-28 00:10:00,63.4,58.8,30.13,NNE,29,0.0,1.0,85,0.00,,,0.00,Wunderground v.1.15,2015-08-28 04:10:00,
2015-08-28 00:16:00,63.2,58.6,30.13,NNE,29,0.0,0.0,85,0.00,,,0.00,Wunderground v.1.15,2015-08-28 04:16:00,
2015-08-28 00:22:00,62.9,58.6,30.13,NNE,29,0.0,0.0,86,0.00,,,0.00,Wunderground v.1.15,2015-08-28 04:22:00,
2015-08-28 00:27:00,62.7,58.5,30.13,NNE,29,0.0,0.0,86,0.00,,,0.00,Wunderground v.1.15,2015-08-28 04:27:00,
2015-08-28 00:32:00,62.4,58.5,30.13,NNE,29,0.0,0.0,87,0.00,,,0.00,Wunderground v.1.15,2015-08-28 04:32:00,
2015-08-28 00:37:00,62.2,58.3,30.13,NNE,29,0.0,0.0,87,0.00,,,0.00,Wunderground v.1.15,2015-08-28 04:37:00,
2015-08-28 00:43:00,62.0,58.4,30.13,NNE,29,0.0,0.0,88,0.00,,,0.00,Wunderground v.1.15,2015-08-28 04:43:00,
2015-08-28 00:48:00,61.8,58.2,30.13,NNE,29,0.0,0.0,88,0.00,,,0.00,Wunderground v.1.15,2015-08-28 04:48:00,
2015-08-28 00:53:00,61.7,58.1,30.13,NNE,29,0.0,0.0,88,0.00,,,0.00,Wunderground v.1.15,2015-08-28 04:53:00,
2015-08-28 00:59:00,61.5,58.2,30.13,NNE,29,0.0,0.0,89,0.00,,,0.00,Wunderground v.1.15,2015-08-28 04:59:00,
2015-08-28 01:05:00,61.4,58.1,30.13,NNE,29,0.0,0.0,89,0.00,,,0.00,Wunderground v.1.15,2015-08-28 05:05:00,
2015-08-28 01:10:00,61.3,58.0,30.13,NNE,29,0.0,0.0,89,0.00,,,0.00,Wunderground v.1.15,2015-08-28 05:10:00,
2015-08-28 01:16:00,61.2,57.9,30.14,NNE,29,0.0,0.0,89,0.00,,,0.00,Wunderground v.1.15,2015-08-28 05:16:00,
2015-08-28 01:21:00,61.0,57.7,30.14,NNE,29,0.0,0.0,89,0.00,,,0.00,Wunderground v.1.15,2015-08-28 05:21:00,
2015-08-28 01:27:00,60.9,57.9,30.14,NNE,29,0.0,0.0,90,0.00,,,0.00,Wunderground v.1.15,2015-08-28 05:27:00,
2015-08-28 01:33:00,60.7,57.7,30.14,NNE,29,0.0,0.0,90,0.00,,,0.00,Wunderground v.1.15,2015-08-28 05:33:00,
2015-08-28 01:38:00,60.4,57.5,30.14,NNE,29,0.0,0.0,90,0.00,,,0.00,Wunderground v.1.15,2015-08-28 05:38:00,
2015-08-28 01:43:00,60.3,57.4,30.13,NNE,29,0.0,0.0,90,0.00,,,0.00,Wunderground v.1.15,2015-08-28 05:43:00,
2015-08-28 01:49:00,60.1,57.5,30.13,NNE,29,0.0,0.0,91,0.00,,,0.00,Wunderground v.1.15,2015-08-28 05:49:00,
2015-08-28 01:54:00,59.9,57.3,30.13,NNE,29,0.0,0.0,91,0.00,,,0.00,Wunderground v.1.15,2015-08-28 05:54:00,
2015-08-28 01:59:00,59.7,57.1,30.13,NNE,29,0.0,0.0,91,0.00,,,0.00,Wunderground v.1.15,2015-08-28 05:59:00,
2015-08-28 02:04:00,59.6,57.3,30.14,NNE,29,0.0,0.0,92,0.00,,,0.00,Wunderground v.1.15,2015-08-28 06:04:00,
2015-08-28 02:09:00,59.5,57.2,30.14,NNE,29,0.0,0.0,92,0.00,,,0.00,Wunderground v.1.15,2015-08-28 06:09:00,
2015-08-28 02:14:00,59.4,57.1,30.13,NNE,29,0.0,0.0,92,0.00,,,0.00,Wunderground v.1.15,2015-08-28 06:14:00,
2015-08-28 02:19:00,59.3,57.0,30.13,NNE,29,0.0,0.0,92,0.00,,,0.00,Wunderground v.1.15,2015-08-28 06:19:00,
2015-08-28 02:24:00,59.2,56.9,30.13,NNE,29,0.0,0.0,92,0.00,,,0.00,Wunderground v.1.15,2015-08-28 06:24:00,
2015-08-28 02:29:00,59.0,56.7,30.13,NNE,29,0.0,0.0,92,0.00,,,0.00,Wunderground v.1.15,2015-08-28 06:29:00,
2015-08-28 02:34:00,58.8,56.5,30.13,NNE,29,0.0,0.0,92,0.00,,,0.00,Wunderground v.1.15,2015-08-28 06:34:00,
2015-08-28 02:39:00,58.7,56.7,30.13,NNE,29,0.0,0.0,93,0.00,,,0.00,Wunderground v.1.15,2015-08-28 06:39:00,
2015-08-28 02:44:00,58.6,56.6,30.12,NNE,29,0.0,0.0,93,0.00,,,0.00,Wunderground v.1.15,2015-08-28 06:44:00,
2015-08-28 02:49:00,58.4,56.4,30.12,NNE,29,0.0,0.0,93,0.00,,,0.00,Wunderground v.1.15,2015-08-28 06:49:00,
2015-08-28 02:54:00,58.4,56.4,30.12,NNE,29,0.0,0.0,93,0.00,,,0.00,Wunderground v.1.15,2015-08-28 06:54:00,
2015-08-28 02:59:00,58.3,56.3,30.13,NNE,29,0.0,0.0,93,0.00,,,0.00,Wunderground v.1.15,2015-08-28 06:59:00,
2015-08-28 03:04:00,58.1,56.1,30.13,NNE,29,0.0,0.0,93,0.00,,,0.00,Wunderground v.1.15,2015-08-28 07:04:00,
2015-08-28 03:09:00,57.9,55.9,30.13,NNE,29,0.0,0.0,93,0.00,,,0.00,Wunderground v.1.15,2015-08-28 07:09:00,
2015-08-28 03:15:00,57.7,55.7,30.13,NNE,29,0.0,0.0,93,0.00,,,0.00,Wunderground v.1.15,2015-08-28 07:15:00,
2015-08-28 03:20:00,57.6,55.9,30.13,NNE,29,0.0,0.0,94,0.00,,,0.00,Wunderground v.1.15,2015-08-28 07:20:00,
2015-08-28 03:25:00,57.6,55.9,30.13,NNE,29,0.0,0.0,94,0.00,,,0.00,Wunderground v.1.15,2015-08-28 07:25:00,
2015-08-28 03:30:00,57.6,55.9,30.13,NNE,29,0.0,0.0,94,0.00,,,0.00,Wunderground v.1.15,2015-08-28 07:30:00,
2015-08-28 03:35:00,57.7,56.0,30.13,NNE,29,0.0,0.0,94,0.00,,,0.00,Wunderground v.1.15,2015-08-28 07:35:00,
2015-08-28 03:40:00,57.7,56.3,30.13,NNE,29,0.0,0.0,95,0.00,,,0.00,Wunderground v.1.15,2015-08-28 07:40:00,
2015-08-28 03:45:00,57.6,56.2,30.13,NNE,29,0.0,0.0,95,0.00,,,0.00,Wunderground v.1.15,2015-08-28 07:45:00,
2015-08-28 03:50:00,57.5,56.1,30.13,NNE,29,0.0,0.0,95,0.00,,,0.00,Wunderground v.1.15,2015-08-28 07:50:00,
2015-08-28 03:55:00,57.3,55.6,30.14,NNE,29,0.0,0.0,94,0.00,,,0.00,Wunderground v.1.15,2015-08-28 07:55:00,
2015-08-28 04:00:00,57.1,55.7,30.14,NNE,29,0.0,0.0,95,0.00,,,0.00,Wunderground v.1.15,2015-08-28 08:00:00,
2015-08-28 04:05:00,56.9,55.5,30.14,NNE,29,0.0,0.0,95,0.00,,,0.00,Wunderground v.1.15,2015-08-28 08:05:00,
2015-08-28 04:10:00,56.6,55.2,30.14,NNE,29,0.0,0.0,95,0.00,,,0.00,Wunderground v.1.15,2015-08-28 08:10:00,
2015-08-28 04:15:00,56.5,55.1,30.14,NNE,29,0.0,0.0,95,0.00,,,0.00,Wunderground v.1.15,2015-08-28 08:15:00,
2015-08-28 04:20:00,56.5,55.1,30.14,NNE,29,0.0,0.0,95,0.00,,,0.00,Wunderground v.1.15,2015-08-28 08:20:00,
2015-08-28 04:25:00,56.6,55.2,30.14,NNE,29,0.0,0.0,95,0.00,,,0.00,Wunderground v.1.15,2015-08-28 08:25:00,
2015-08-28 04:30:00,56.7,55.3,30.15,NNE,29,0.0,0.0,95,0.00,,,0.00,Wunderground v.1.15,2015-08-28 08:30:00,
2015-08-28 04:36:00,56.6,55.2,30.15,NNE,29,0.0,0.0,95,0.00,,,0.00,Wunderground v.1.15,2015-08-28 08:36:00,
2015-08-28 04:41:00,56.5,55.1,30.15,NNE,29,0.0,0.0,95,0.00,,,0.00,Wunderground v.1.15,2015-08-28 08:41:00,
2015-08-28 04:46:00,56.5,55.1,30.15,NNE,29,0.0,0.0,95,0.00,,,0.00,Wunderground v.1.15,2015-08-28 08:46:00,
2015-08-28 04:51:00,56.3,54.9,30.15,NNE,29,0.0,0.0,95,0.00,,,0.00,Wunderground v.1.15,2015-08-28 08:51:00,
2015-08-28 04:56:00,56.2,54.8,30.14,NNE,29,0.0,0.0,95,0.00,,,0.00,Wunderground v.1.15,2015-08-28 08:56:00,
2015-08-28 05:01:00,56.1,54.7,30.15,NNE,29,0.0,0.0,95,0.00,,,0.00,Wunderground v.1.15,2015-08-28 09:01:00,
2015-08-28 05:06:00,56.0,54.9,30.15,NNE,29,0.0,0.0,96,0.00,,,0.00,Wunderground v.1.15,2015-08-28 09:06:00,
2015-08-28 05:11:00,56.0,54.9,30.14,NNE,29,0.0,0.0,96,0.00,,,0.00,Wunderground v.1.15,2015-08-28 09:11:00,
2015-08-28 05:16:00,56.1,55.0,30.14,NNE,29,0.0,0.0,96,0.00,,,0.00,Wunderground v.1.15,2015-08-28 09:16:00,
2015-08-28 05:21:00,56.0,54.9,30.14,NNE,29,0.0,0.0,96,0.00,,,0.00,Wunderground v.1.15,2015-08-28 09:21:00,
2015-08-28 05:26:00,56.0,54.9,30.14,NNE,29,0.0,0.0,96,0.00,,,0.00,Wunderground v.1.15,2015-08-28 09:26:00,
2015-08-28 05:31:00,55.9,54.8,30.14,NNE,29,0.0,0.0,96,0.00,,,0.00,Wunderground v.1.15,2015-08-28 09:31:00,
2015-08-28 05:36:00,55.9,54.8,30.14,NNE,29,0.0,0.0,96,0.00,,,0.00,Wunderground v.1.15,2015-08-28 09:36:00,
2015-08-28 05:41:00,56.0,54.9,30.15,NNE,29,0.0,0.0,96,0.00,,,0.00,Wunderground v.1.15,2015-08-28 09:41:00,
2015-08-28 05:47:00,56.0,54.9,30.16,NNE,29,0.0,0.0,96,0.00,,,0.00,Wunderground v.1.15,2015-08-28 09:47:00,
2015-08-28 05:52:00,56.0,54.9,30.16,NNE,29,0.0,0.0,96,0.00,,,0.00,Wunderground v.1.15,2015-08-28 09:52:00,